• In Hungary
  • List of Countries
  • For 7 days
  • Water Temperature
  • Satellite Maps
  • Weather Map
  • News
  • Weather Widgets
  • user-avatar
    Login

    Hourly Weather Lampeter

    Today, 20 November, Monday

    Time Temperature Precipitation Wind Pressure Humidity
    00:00 +3°C° 1.2 mm 3 mps 754 mmHg 94%
    01:00 +4°C° 1.1 mm 3 mps 753 mmHg 95%
    02:00 +4°C° 1.1 mm 3 mps 752 mmHg 96%
    03:00 +5°C° 1.1 mm 4 mps 751 mmHg 96%
    04:00 +5°C° 0.6 mm 3 mps 750 mmHg 96%
    05:00 +7°C° 0.6 mm 3 mps 749 mmHg 96%
    06:00 +8°C° 0.6 mm 3 mps 748 mmHg 97%
    07:00 +8°C° 0.4 mm 3 mps 748 mmHg 96%
    08:00 +8°C° 0.4 mm 3 mps 747 mmHg 96%
    09:00 +9°C° 0.4 mm 3 mps 747 mmHg 96%
    10:00 +9°C° 1 mm 3 mps 747 mmHg 95%
    11:00 +9°C° 1 mm 3 mps 747 mmHg 95%
    12:00 +8°C° 1 mm 4 mps 747 mmHg 95%
    13:00 +9°C° 0.2 mm 3 mps 747 mmHg 95%
    14:00 +9°C° 0.2 mm 3 mps 748 mmHg 95%
    15:00 +9°C° 0.2 mm 3 mps 748 mmHg 94%
    16:00 +9°C° 0.1 mm 3 mps 748 mmHg 95%
    17:00 +9°C° 0.1 mm 3 mps 749 mmHg 96%
    18:00 +8°C° 0.1 mm 2 mps 749 mmHg 97%
    19:00 +8°C° 0.1 mm 3 mps 750 mmHg 97%
    20:00 +8°C° 0.1 mm 3 mps 750 mmHg 97%
    21:00 +8°C° 0.1 mm 3 mps 750 mmHg 97%
    22:00 +8°C° 0.1 mm 3 mps 750 mmHg 97%
    23:00 +8°C° 0.1 mm 3 mps 750 mmHg 97%

    Tomorrow, 21 November, Tuesday

    Time Temperature Precipitation Wind Pressure Humidity
    00:00 +8°C° 0.1 mm 3 mps 750 mmHg 97%
    01:00 +8°C° 0.1 mm 3 mps 750 mmHg 97%
    02:00 +8°C° 0.1 mm 3 mps 749 mmHg 97%
    03:00 +8°C° 0.1 mm 3 mps 749 mmHg 97%
    04:00 +8°C° 1.7 mm 3 mps 748 mmHg 97%
    05:00 +8°C° 1.7 mm 3 mps 748 mmHg 98%
    06:00 +8°C° 1.7 mm 3 mps 747 mmHg 98%
    07:00 +9°C° 1.2 mm 3 mps 746 mmHg 97%
    08:00 +10°C° 1.2 mm 3 mps 746 mmHg 97%
    09:00 +10°C° 1.2 mm 4 mps 745 mmHg 97%
    10:00 +11°C° 0.3 mm 4 mps 745 mmHg 96%
    11:00 +10°C° 0.3 mm 5 mps 744 mmHg 94%
    12:00 +10°C° 0.3 mm 5 mps 743 mmHg 93%
    13:00 +10°C° 0.2 mm 5 mps 742 mmHg 92%
    14:00 +10°C° 0.2 mm 6 mps 741 mmHg 91%
    15:00 +10°C° 0.2 mm 6 mps 740 mmHg 90%
    16:00 +10°C° 0.3 mm 7 mps 739 mmHg 90%
    17:00 +11°C° 0.3 mm 7 mps 738 mmHg 91%
    18:00 +12°C° 0.3 mm 8 mps 737 mmHg 91%
    19:00 +12°C° 0.1 mm 8 mps 737 mmHg 91%
    20:00 +12°C° 0.1 mm 8 mps 736 mmHg 91%
    21:00 +12°C° 0.1 mm 8 mps 736 mmHg 91%
    22:00 +11°C° 0.1 mm 8 mps 736 mmHg 88%
    23:00 +11°C° 0.1 mm 9 mps 736 mmHg 86%

    Day after tomorrow, 22 November, Wednesday

    Time Temperature Precipitation Wind Pressure Humidity
    00:00 +10°C° 0.1 mm 9 mps 736 mmHg 83%
    01:00 +10°C° 0 mm 9 mps 736 mmHg 85%
    02:00 +9°C° 0 mm 8 mps 736 mmHg 87%
    03:00 +9°C° 0 mm 8 mps 736 mmHg 89%
    04:00 +9°C° 0 mm 7 mps 736 mmHg 90%
    05:00 +8°C° 0 mm 6 mps 736 mmHg 91%
    06:00 +8°C° 0 mm 5 mps 736 mmHg 92%
    07:00 +8°C° 0.1 mm 4 mps 736 mmHg 92%
    08:00 +9°C° 0.1 mm 3 mps 736 mmHg 92%
    09:00 +9°C° 0.1 mm 2 mps 736 mmHg 92%
    10:00 +9°C° 1.7 mm 2 mps 735 mmHg 94%
    11:00 +9°C° 1.7 mm 3 mps 735 mmHg 95%
    12:00 +9°C° 1.7 mm 3 mps 734 mmHg 96%
    13:00 +8°C° 3.1 mm 4 mps 733 mmHg 95%
    14:00 +7°C° 3.1 mm 5 mps 732 mmHg 95%
    15:00 +7°C° 3.1 mm 6 mps 731 mmHg 94%
    16:00 +7°C° 2 mm 6 mps 731 mmHg 93%
    17:00 +5°C° 2 mm 7 mps 730 mmHg 93%
    18:00 +5°C° 2 mm 7 mps 730 mmHg 92%
    19:00 +5°C° 2 mm 7 mps 730 mmHg 92%
    20:00 +4°C° 2 mm 7 mps 730 mmHg 91%
    21:00 +4°C° 2 mm 7 mps 731 mmHg 91%
    22:00 +4°C° 1.2 mm 6 mps 731 mmHg 90%
    23:00 +4°C° 1.2 mm 6 mps 732 mmHg 90%

    23 November, Thursday

    Time Temperature Precipitation Wind Pressure Humidity
    00:00 +4°C° 1.2 mm 6 mps 733 mmHg 89%
    01:00 +5°C° 0.3 mm 5 mps 734 mmHg 90%
    02:00 +5°C° 0.3 mm 5 mps 734 mmHg 90%
    03:00 +5°C° 0.3 mm 4 mps 735 mmHg 90%
    04:00 +5°C° 0.4 mm 4 mps 736 mmHg 91%
    05:00 +5°C° 0.4 mm 5 mps 736 mmHg 91%
    06:00 +5°C° 0.4 mm 5 mps 737 mmHg 92%
    07:00 +6°C° 0.2 mm 5 mps 737 mmHg 92%
    08:00 +6°C° 0.2 mm 4 mps 738 mmHg 92%
    09:00 +6°C° 0.2 mm 4 mps 738 mmHg 92%
    10:00 +7°C° 0.6 mm 4 mps 738 mmHg 92%
    11:00 +7°C° 0.6 mm 4 mps 737 mmHg 91%
    12:00 +8°C° 0.6 mm 4 mps 737 mmHg 91%
    13:00 +9°C° 0.2 mm 6 mps 736 mmHg 88%
    14:00 +9°C° 0.2 mm 7 mps 736 mmHg 86%
    15:00 +10°C° 0.2 mm 8 mps 736 mmHg 84%
    16:00 +9°C° 0.1 mm 8 mps 736 mmHg 84%
    17:00 +9°C° 0.1 mm 8 mps 737 mmHg 84%
    18:00 +7°C° 0.1 mm 8 mps 737 mmHg 84%
    19:00 +8°C° 0 mm 7 mps 738 mmHg 85%
    20:00 +7°C° 0 mm 6 mps 738 mmHg 86%
    21:00 +7°C° 0 mm 6 mps 738 mmHg 87%
    22:00 +7°C° 0.1 mm 6 mps 738 mmHg 86%
    23:00 +6°C° 0.1 mm 7 mps 738 mmHg 84%

    24 November, Friday

    Time Temperature Precipitation Wind Pressure Humidity
    00:00 +8°C° 0.1 mm 7 mps 738 mmHg 82%
    01:00 +6°C° 0 mm 8 mps 738 mmHg 81%
    02:00 +6°C° 0 mm 8 mps 737 mmHg 79%
    03:00 +5°C° 0 mm 9 mps 737 mmHg 78%
    04:00 +5°C° 0 mm 9 mps 737 mmHg 77%
    05:00 +5°C° 0 mm 9 mps 737 mmHg 77%
    06:00 +3°C° 0 mm 10 mps 737 mmHg 76%
    07:00 +5°C° 0 mm 10 mps 738 mmHg 77%
    08:00 +5°C° 0 mm 10 mps 738 mmHg 78%
    09:00 +5°C° 0 mm 9 mps 739 mmHg 78%
    10:00 +5°C° 0 mm 10 mps 739 mmHg 76%
    11:00 +5°C° 0 mm 10 mps 740 mmHg 74%
    12:00 +6°C° 0 mm 10 mps 740 mmHg 72%
    13:00 +5°C° 0 mm 9 mps 741 mmHg 73%
    14:00 +5°C° 0 mm 9 mps 741 mmHg 73%
    15:00 +3°C° 0 mm 9 mps 742 mmHg 74%
    16:00 +4°C° 0 mm 8 mps 743 mmHg 77%
    17:00 +3°C° 0 mm 7 mps 743 mmHg 80%
    18:00 +2°C° 0 mm 6 mps 744 mmHg 83%
    19:00 +1°C° 0 mm 5 mps 745 mmHg 84%
    20:00 +1°C° 0 mm 4 mps 745 mmHg 86%
    21:00 +1°C° 0 mm 3 mps 746 mmHg 87%
    22:00 +1°C° 0 mm 3 mps 746 mmHg 87%
    23:00 +2°C° 0 mm 2 mps 747 mmHg 87%

    25 November, Saturday

    Time Temperature Precipitation Wind Pressure Humidity
    00:00 +2°C° 0 mm 2 mps 747 mmHg 88%
    01:00 +2°C° 0 mm 2 mps 747 mmHg 87%
    02:00 +2°C° 0 mm 2 mps 747 mmHg 86%
    03:00 +2°C° 0 mm 2 mps 747 mmHg 85%
    04:00 +1°C° 0 mm 3 mps 747 mmHg 84%
    05:00 +1°C° 0 mm 3 mps 746 mmHg 84%
    06:00 0°C° 0 mm 4 mps 746 mmHg 83%
    07:00 0°C° 0 mm 4 mps 746 mmHg 82%
    08:00 0°C° 0 mm 4 mps 746 mmHg 81%
    09:00 0°C° 0 mm 5 mps 746 mmHg 79%
    10:00 +1°C° 0 mm 5 mps 746 mmHg 77%
    11:00 +1°C° 0 mm 5 mps 746 mmHg 74%
    12:00 +2°C° 0 mm 5 mps 747 mmHg 71%
    13:00 +1°C° 0 mm 4 mps 747 mmHg 72%
    14:00 +1°C° 0 mm 4 mps 748 mmHg 73%
    15:00 +1°C° 0 mm 4 mps 748 mmHg 75%
    16:00 +1°C° 0 mm 3 mps 749 mmHg 77%
    17:00 0°C° 0 mm 3 mps 750 mmHg 79%
    18:00 -1°C° 0 mm 2 mps 750 mmHg 81%
    19:00 -1°C° 0 mm 2 mps 751 mmHg 80%
    20:00 -1°C° 0 mm 2 mps 752 mmHg 79%
    21:00 -1°C° 0 mm 2 mps 752 mmHg 78%
    22:00 -1°C° 0 mm 2 mps 752 mmHg 78%
    23:00 +1°C° 0 mm 2 mps 752 mmHg 78%
    Show more